Hourly Weather Roundup
Issued by NWS Central Illinois

Home | Current Version | Previous Version | Text Only | Print | Product List | Glossary On
Versions: 1 2 3 4 5 6 7 8 9 10 11 12 13 14 15 16 17 18 19 20 21 22 23 24 25 26 27 28 29 30 31 32 33 34 35 36 37 38 39 40 41 42 43 44 45 46 47 48 49 50
000
NZUS43 KILX 222110
HWRILX

Area Weather Roundup
National Weather Service Lincoln IL
400 PM CDT FRI SEP 22 2017

NOTE:  "FAIR" indicates few or no clouds below 12,000 feet, with
       no sigificant weather and/or obstructions to visibility.


CITY           SKY/WX    TMP DP  RH WIND       PRES   REMARKS
Bloomington    MOSUNNY   92  66  42 SW6       30.03F HX  94
Champaign      MOSUNNY   92  61  35 SE5       30.02F HX  92
Danville       MOSUNNY   93  66  40 SE3       30.01F HX  96
Decatur        SUNNY     91  64  40 CALM      30.01F HX  92
Effingham      MOSUNNY   94  63  35 E5        30.02F HX  95
Flora          MOSUNNY   94  67  40 E6        30.00F HX  97
Galesburg      SUNNY     91  65  42 S9        30.00F HX  94
Jacksonville   MOSUNNY   93  63  35 SE13G20   29.99F HX  94
Lacon          SUNNY     93  65  39 SW7       30.00F HX  95
Lawrenceville  MOSUNNY   91  69  48 S6        30.00F HX  96
Litchfield     MOSUNNY   92  63  38 S7        30.01F HX  92
$$


CITY           SKY/WX    TMP DP  RH WIND       PRES   REMARKS
Lincoln        PTSUNNY   94  65  38 S6        30.00F HX  96
Macomb         SUNNY     94  62  34 SW10G16   30.01F HX  94
Mattoon        MOSUNNY   92  64  39 S8        30.01F HX  93
Mt Carmel AP   SUNNY     88  69  52 SW3       30.01F HX  92
Olney-Noble AP MOSUNNY   92  60  34 S3        30.01F HX  91
Paris AP       SUNNY     92  66  42 SE5       30.02F HX  95
Peoria         MOSUNNY   94  64  37 S12       30.00F HX  95
Pontiac        MOSUNNY   94  65  37 S6        30.03F HX  96
Rantoul        MOSUNNY   93  66  40 SE7       30.02F HX  96
Robinson       MOSUNNY   91  68  46 NE5       30.02F HX  95
Springfield    SUNNY     94  64  37 S7        30.01F HX  95
Taylorville    MOSUNNY   93  62  35 CALM      30.01F HX  93
$$

...REGIONAL REPORTS...


CITY           SKY/WX    TMP DP  RH WIND       PRES   REMARKS
Chicago O`Hare MOSUNNY   94  62  34 VRB5      30.01F HX  94
Kankakee       SUNNY     91  66  43 SE5       30.04F HX  94
Moline         SUNNY     93  65  39 S12       29.97F HX  95
Mount Sterling MOSUNNY   92  65  41 S10       29.99F HX  93
Mount Vernon     N/A     93  65  39 S6        30.00F HX  95
Pittsfield     MOSUNNY   93  65  39 SE7       30.01F HX  95
Quincy         SUNNY     92  64  39 S12       29.98F HX  93
Rockford       MOSUNNY   91  64  40 SW13      30.02F HX  92
$$


CITY           SKY/WX    TMP DP  RH WIND       PRES   REMARKS
Burlington     SUNNY     92  67  43 S12       29.97F HX  95
Cedar Rapids   MOSUNNY   91  66  43 S14G25    29.95F HX  93
Des Moines     MOSUNNY   91  69  48 S17       29.89F HX  96
Kirksville     MOSUNNY   91  67  44 S15       29.98F HX  94
Ottumwa        SUNNY     91  68  46 S17       29.95F HX  95
St Louis       MOSUNNY   94  58  29 S3G16     29.99F HX  93
$$


CITY           SKY/WX    TMP DP  RH WIND       PRES   REMARKS
Terre Haute    SUNNY     93  62  35 SE7       30.02F HX  93
Evansville     MOSUNNY   90  66  45 VRB7      30.01F HX  92
Indianapolis   MOSUNNY   93  65  39 NE8       30.03F HX  95
Lafayette      SUNNY     91  67  44 N3        30.02F HX  94
Madison        MOSUNNY   91  65  41 S13G22    29.99F HX  93
Milwaukee      MOSUNNY   90  69  50 SE13      30.01F HX  94
$$





USA.gov is the U.S. government's official web portal to all federal, state and local government web resources and services.